TimeCET,TemperatureF,Dew PointF,Humidity,Sea Level PressureIn,VisibilityMPH,Wind Direction,Wind SpeedMPH,Gust SpeedMPH,PrecipitationIn,Events,Conditions,WindDirDegrees,DateUTC
12:00 AM,51.8,46.4,82,29.92,3.7,WSW,12.7,-,N/A,Rain,Rain Showers,250,2012-11-04 23:00:00
12:18 AM,50.0,46.4,87,29.92,6.2,SW,9.2,-,N/A,,Scattered Clouds,230,2012-11-04 23:18:00
12:30 AM,50.0,46.4,87,29.92,6.2,SW,8.1,-,N/A,,Scattered Clouds,220,2012-11-04 23:30:00
12:34 AM,50.0,46.4,87,29.92,2.5,SW,9.2,-,N/A,Rain,Rain Showers,220,2012-11-04 23:34:00
1:00 AM,50.0,46.4,87,29.92,6.2,SW,8.1,-,N/A,,Scattered Clouds,220,2012-11-05 00:00:00
5:30 AM,51.8,46.4,82,29.95,6.2,WSW,12.7,-,N/A,,Partly Cloudy,250,2012-11-05 04:30:00
6:00 AM,51.8,46.4,82,29.95,6.2,WSW,11.5,-,N/A,,Scattered Clouds,250,2012-11-05 05:00:00
6:30 AM,51.8,46.4,82,29.95,6.2,WSW,11.5,-,N/A,,Scattered Clouds,250,2012-11-05 05:30:00
7:00 AM,51.8,46.4,82,29.98,6.2,Variable,2.3,-,N/A,,Scattered Clouds,0,2012-11-05 06:00:00
7:30 AM,50.0,46.4,87,29.98,6.2,SW,4.6,-,N/A,,Scattered Clouds,220,2012-11-05 06:30:00
8:00 AM,50.0,46.4,87,29.98,6.2,SW,9.2,-,N/A,,Partly Cloudy,230,2012-11-05 07:00:00
8:21 AM,50.0,46.4,87,29.98,6.2,South,3.5,-,N/A,Rain,Rain Showers,190,2012-11-05 07:21:00
8:24 AM,50.0,46.4,87,29.98,6.2,West,12.7,-,N/A,Rain,Rain Showers,260,2012-11-05 07:24:00
8:30 AM,51.8,46.4,82,29.98,6.2,West,10.4,-,N/A,Rain,Rain Showers,260,2012-11-05 07:30:00
8:37 AM,51.8,46.4,82,29.98,6.2,West,6.9,-,N/A,,Scattered Clouds,260,2012-11-05 07:37:00
9:00 AM,50.0,46.4,87,29.98,6.2,SW,6.9,-,N/A,,Scattered Clouds,230,2012-11-05 08:00:00
9:30 AM,51.8,48.2,88,30.01,6.2,SW,5.8,-,N/A,,Scattered Clouds,220,2012-11-05 08:30:00
10:00 AM,53.6,48.2,82,30.01,6.2,SW,8.1,-,N/A,,Scattered Clouds,220,2012-11-05 09:00:00
10:30 AM,55.4,50.0,82,30.01,6.2,SW,4.6,-,N/A,,Scattered Clouds,220,2012-11-05 09:30:00
11:00 AM,57.2,50.0,77,30.04,6.2,SSW,5.8,-,N/A,Rain,Rain Showers,200,2012-11-05 10:00:00
11:06 AM,55.4,48.2,77,30.04,6.2,SSW,6.9,-,N/A,Rain,Rain Showers,210,2012-11-05 10:06:00
11:17 AM,53.6,46.4,77,30.04,6.2,West,10.4,-,N/A,,Scattered Clouds,260,2012-11-05 10:17:00
11:30 AM,53.6,46.4,77,30.04,6.2,West,9.2,-,N/A,,Scattered Clouds,260,2012-11-05 10:30:00
12:30 PM,55.4,48.2,77,30.04,6.2,SW,6.9,-,N/A,,Scattered Clouds,230,2012-11-05 11:30:00
1:00 PM,57.2,50.0,77,30.04,6.2,WSW,5.8,-,N/A,,Scattered Clouds,240,2012-11-05 12:00:00
1:30 PM,57.2,48.2,72,30.04,6.2,WNW,10.4,-,N/A,Rain,Rain Showers,300,2012-11-05 12:30:00
1:35 PM,57.2,50.0,77,30.04,6.2,WNW,10.4,-,N/A,Rain,Rain Showers,300,2012-11-05 12:35:00
1:45 PM,55.4,48.2,77,30.04,6.2,West,9.2,-,N/A,,Scattered Clouds,280,2012-11-05 12:45:00
2:00 PM,53.6,48.2,82,30.06,6.2,West,10.4,-,N/A,,Scattered Clouds,270,2012-11-05 13:00:00
2:30 PM,55.4,50.0,82,30.04,6.2,WSW,8.1,-,N/A,,Scattered Clouds,240,2012-11-05 13:30:00
3:00 PM,55.4,48.2,77,30.06,6.2,WNW,6.9,-,N/A,Rain,Rain Showers,290,2012-11-05 14:00:00
3:16 PM,53.6,46.4,77,30.06,6.2,WSW,8.1,-,N/A,,Scattered Clouds,250,2012-11-05 14:16:00
3:30 PM,53.6,46.4,77,30.06,6.2,WSW,8.1,-,N/A,,Scattered Clouds,250,2012-11-05 14:30:00
4:00 PM,53.6,46.4,77,30.06,6.2,West,9.2,-,N/A,,Scattered Clouds,270,2012-11-05 15:00:00
4:30 PM,55.4,48.2,77,30.06,6.2,WSW,6.9,20.7,N/A,Rain,Light Rain Showers,250,2012-11-05 15:30:00
5:00 PM,55.4,48.2,77,30.06,6.2,Variable,1.2,-,N/A,,Partly Cloudy,0,2012-11-05 16:00:00
5:30 PM,53.6,48.2,82,30.06,6.2,WSW,4.6,-,N/A,,Partly Cloudy,240,2012-11-05 16:30:00
5:41 PM,53.6,48.2,82,30.06,6.2,SW,5.8,-,N/A,,Scattered Clouds,230,2012-11-05 16:41:00
6:00 PM,53.6,48.2,82,30.09,6.2,Variable,3.5,-,N/A,Rain,Light Rain Showers,0,2012-11-05 17:00:00
6:30 PM,51.8,44.6,76,30.09,6.2,Variable,1.2,-,N/A,,Scattered Clouds,0,2012-11-05 17:30:00
7:00 PM,51.8,48.2,88,30.09,6.2,South,5.8,-,N/A,,Mostly Cloudy,180,2012-11-05 18:00:00
7:30 PM,50.0,48.2,94,30.12,6.2,Variable,1.2,-,N/A,,Scattered Clouds,0,2012-11-05 18:30:00
8:00 PM,50.0,46.4,87,30.12,6.2,SSW,3.5,-,N/A,,Scattered Clouds,200,2012-11-05 19:00:00
8:30 PM,48.2,46.4,93,30.12,6.2,Variable,2.3,-,N/A,Rain,Light Rain,0,2012-11-05 19:30:00
9:00 PM,48.2,48.2,100,30.15,6.2,South,3.5,-,N/A,Rain,Light Rain,190,2012-11-05 20:00:00
9:18 PM,48.2,46.4,93,30.15,3.1,Variable,2.3,-,N/A,Fog,Shallow Fog,0,2012-11-05 20:18:00
9:19 PM,48.2,46.4,93,30.15,3.1,Variable,2.3,-,N/A,Fog,Shallow Fog,0,2012-11-05 20:19:00
9:30 PM,46.4,46.4,100,30.15,3.1,Variable,2.3,-,N/A,Fog,Shallow Fog,0,2012-11-05 20:30:00
10:00 PM,48.2,48.2,100,30.15,6.2,Calm,Calm,-,N/A,,Scattered Clouds,0,2012-11-05 21:00:00
10:30 PM,48.2,46.4,93,30.15,6.2,SSW,3.5,-,N/A,,Scattered Clouds,210,2012-11-05 21:30:00
11:00 PM,46.4,46.4,100,30.18,6.2,South,3.5,-,N/A,,Partly Cloudy,180,2012-11-05 22:00:00
11:30 PM,46.4,44.6,93,30.18,6.2,Variable,2.3,-,N/A,Fog,Shallow Fog,0,2012-11-05 22:30:00